Location: Black Creek
(40.9000°S, 175.5500°E)
Time: 03:55:26
(UTC+00:00)

NOAA 19 - Visible Passes

Search period start: 08 December 2025 00:00
Search period end: 18 December 2025 00:00
Orbit: 838 x 857 km, 99.0° (Epoch: 07 December)

Date Brightness Start Highest point End Pass type
(mag) Time Alt. Az. Time Alt. Az. Time Alt. Az.
08 Dec 6.2 09:46:30 10° SE 09:51:11 27° E 09:52:03 26° ENE visible
08 Dec 6.2 11:26:42 10° S 11:31:53 41° WSW 11:34:00 29° WNW visible
09 Dec 6.6 09:34:12 10° SE 09:38:21 21° E 09:39:12 20° ENE visible
09 Dec 5.8 11:13:50 10° S 11:19:13 52° WSW 11:21:09 36° WNW visible
10 Dec 6.8 09:22:08 10° SE 09:25:28 16° E 09:26:22 16° ENE visible
10 Dec 5.4 11:01:01 10° S 11:06:33 68° WSW 11:08:18 43° NW visible
11 Dec 7.1 09:10:32 10° ESE 09:12:34 12° E 09:13:30 11° E visible
11 Dec 5.2 10:48:15 10° SSE 10:53:51 86° WSW 10:55:26 49° NNW visible
11 Dec 7.7 12:31:13 10° SSW 12:33:36 13° WSW 12:35:59 10° W visible
12 Dec 5.1 10:35:32 10° SSE 10:41:08 74° ENE 10:42:35 50° N visible
12 Dec 7.5 12:17:43 10° SSW 12:21:04 17° WSW 12:24:25 10° W visible
13 Dec 5.3 10:22:52 10° SSE 10:28:23 57° ENE 10:29:43 45° NNE visible
13 Dec 7.2 12:04:28 10° SSW 12:08:31 21° WSW 12:11:39 13° WNW visible
14 Dec 5.7 10:10:16 10° SSE 10:15:36 44° E 10:16:51 38° NE visible
14 Dec 6.9 11:51:23 10° S 11:55:56 26° WSW 11:58:47 17° WNW visible
15 Dec 6.0 09:57:45 10° SSE 10:02:48 34° E 10:04:00 31° ENE visible
15 Dec 6.6 11:38:23 10° S 11:43:19 33° WSW 11:45:55 22° WNW visible
16 Dec 6.3 09:45:20 10° SE 09:49:58 26° E 09:51:07 25° ENE visible
16 Dec 6.2 11:25:27 10° S 11:30:41 42° WSW 11:33:03 28° WNW visible
17 Dec 6.6 09:33:03 10° SE 09:37:07 20° E 09:38:14 19° ENE visible
17 Dec 5.8 11:12:35 10° S 11:18:02 54° WSW 11:20:11 34° NW visible
